Regional Weather Roundup
Issued by NWS Boston, MA

Current Version | Previous Version | Text Only | Print | Product List | Glossary Off
Versions: 1 2 3 4 5 6 7 8 9 10 11 12 13 14 15 16 17 18 19 20 21 22 23 24 25 26 27
000 ASUS41 KBOX 180410 RWRBOX REGIONAL WEATHER ROUNDUP NATIONAL WEATHER SERVICE TAUNTON MA 1100 PM EST SUN DEC 17 2017 NOTE: "FAIR" INDICATES FEW OR NO CLOUDS BELOW 12,000 FEET WITH NO SIGNIFICANT WEATHER AND/OR OBSTRUCTIONS TO VISIBILITY. MAZALL-180500- EASTERN MASSACHUSETTS CITY SKY/WX TMP DP RH WIND PRES REMARKS BOSTON CLOUDY 24 6 46 N6 30.26F WCI 17 BEVERLY MOCLDY 20 6 55 N3 30.25F LAWRENCE PTCLDY 22 6 50 NE3 30.27F BEDFORD CLOUDY 19 8 62 CALM 30.24F BLUE HILL N/A 22 3 44 N5 30.20F WCI 16 NORWOOD PTCLDY 20 15 81 CALM 30.26F MARSHFIELD PTCLDY 21 12 68 CALM 30.25F PLYMOUTH PTCLDY 20 11 68 CALM 30.25F TAUNTON CLOUDY 19 14 81 CALM 30.26S NEW BEDFORD PTCLDY 22 18 85 W3 30.26S $$ MAZALL-180500- CAPE COD AND THE ISLANDS CITY SKY/WX TMP DP RH WIND PRES REMARKS FALMOUTH CLOUDY 23 5 46 CALM 30.25F HYANNIS PTCLDY 26 9 48 W3 30.23F CHATHAM PTCLDY 23 12 62 CALM 30.25F PROVINCETOWN CLOUDY 28 13 53 N9 30.25F WCI 19 NANTUCKET CLOUDY 28 13 53 N3 30.25F MARTHAS VNYRD CLOUDY N/A N/A N/A CALM 30.25F $$ MAZALL-180500- CENTRAL AND WESTERN MASSACHUSETTS CITY SKY/WX TMP DP RH WIND PRES REMARKS WORCESTER CLOUDY 20 4 50 CALM 30.19F FITCHBURG CLOUDY 19 11 70 CALM 30.25F ORANGE NOT AVBL SPRINGFIELD CLOUDY 20 13 71 CALM 30.24F WESTFIELD CLOUDY 22 11 62 N3 30.24F NORTH ADAMS PTCLDY 15 9 76 CALM 30.22S PITTSFIELD CLOUDY 18 11 74 S3 30.16F $$ RIZALL-180500- RHODE ISLAND CITY SKY/WX TMP DP RH WIND PRES REMARKS PROVIDENCE PTCLDY 26 12 55 CALM 30.27R NEWPORT CLOUDY 26 14 60 CALM 30.25S BLOCK ISLAND CLOUDY 30 14 51 CALM 30.26F SMITHFIELD CLOUDY 20 8 60 CALM 30.23F WESTERLY CLOUDY 28 17 63 CALM 30.26F $$ CTZALL-180500- CONNECTICUT CITY SKY/WX TMP DP RH WIND PRES REMARKS BRADLEY INTL CLOUDY 25 12 58 CALM 30.25S HARTFORD CLOUDY 28 14 55 CALM 30.26S BRIDGEPORT CLOUDY 32 15 49 NE5 30.24F WCI 27 DANBURY CLOUDY 29 15 56 CALM 30.23F GROTON CLOUDY 30 14 51 NE3 30.25F NEW HAVEN CLOUDY 31 12 45 CALM 30.24F CHESTER FAIR 28 10 47 CALM 30.23S MERIDEN CLOUDY 28 20 71 CALM 30.25S WILLIMANTIC CLOUDY 24 16 71 CALM 30.26S OXFORD CLOUDY 26 14 60 NE3 30.21F $$ MEZ002-015-021-024-NHZ003-005-008-011-012-014-VTZ005-008-180500- NORTHERN NEW ENGLAND CITY SKY/WX TMP DP RH WIND PRES REMARKS PORTLAND ME PTCLDY 14 6 70 VRB3 30.26F BANGOR ME CLOUDY 4 -1 80 CALM 30.24F CONCORD NH CLOUDY 14 7 73 NE5 30.23F WCI 6 MANCHESTER NH CLOUDY 19 7 59 CALM 30.23F NASHUA NH PTCLDY 15 6 67 CALM 30.25F PORTSMOUTH NH MOCLDY 18 4 55 NW5 30.24F WCI 11 JAFFREY NH CLOUDY 10 6 84 S3 30.18F KEENE NH CLOUDY 12 9 87 CALM 30.24F BURLINGTON VT CLOUDY 8 1 73 E3 30.24F MT. WASHINGTON MOCLDY 10 -17 28 NW25 N/A WCI -10 $$ NYZ052-076-180500- EASTERN NEW YORK CITY SKY/WX TMP DP RH WIND PRES REMARKS ALBANY CLOUDY 19 9 65 NE5 30.24F WCI 12 NEW YORK CITY CLOUDY 35 24 64 E8 30.22F WCI 29 $$ ANZALL-180500- MARINE OBSERVATIONS STATION/POSITION TIME TEMP WIND PRES VSBY WAVE AIR SEA DIR/SP/G HT/PER (UTC) (F) (DEG/KT/KT) (MB) (MI) (FT/S) BOSTON BUOY 0350 28 47 350/ 12/ 14 1023.9F 2/ 3 BUZZARDS BAY 0300 30 360/ 7/ 8 1025.1F NANTUCKET SOUND 0350 30 40 340/ 8/ 10 1024.2F 1/ 5 MASS BAY-STELLWA 0304 26 46 340/ 12/ 16 1024.4F 1/ 3 ISLE OF SHOALS 0300 23 310/ 5/ 7 1025.0F S OF BLOCK IS 0343 51 N/A 2/ 6 $$ ......................KEY......................... SKY/WX - SKY CONDITION/PRESENT WEATHER TMP - TEMPERATURE IN FAHRENHEIT DWPT - DEWPOINT IN FAHRENHEIT RH - RELATIVE HUMIDITY IN PERCENT WIND - DIRECTION AND SPEED IN MPH PRES - MEAN SEA LEVEL PRESSURE IN INCHES OF HG WCI - WIND CHILL INDEX VSB - VISIBILITY IN MILES HX - HEAT INDEX TC - TEMPERATURE IN CELSIUS VRB - VARIABLE WIND DIRECTION N/A - NOT AVAILABLE

USA.gov is the U.S. government's official web portal to all federal, state and local government web resources and services.